713  
ASUS44 KHUN 250710  
RWRHUN  
 
WEATHER ROUNDUP FOR THE TENNESSEE VALLEY  
NATIONAL WEATHER SERVICE HUNTSVILLE AL  
200 AM CDT MON OCT 25 2021  
 
ALZ001>004-250800-  
NORTHWEST ALABAMA  
 
CITY SKY/WX TMP DP RH WIND PRES REMARKS
 
SHOALS AIRPORT MOCLDY 67 59 75 S7 29.92R  

 
 
ALZ005>007-016-250800-  
NORTH CENTRAL ALABAMA  
 
CITY SKY/WX TMP DP RH WIND PRES REMARKS
 
CULLMAN AG STN N/A 55 N/A N/A CALM N/A  
DECATUR AP MOCLDY 65 58 78 S10 29.93F  
HUNTSVILLE AP MOCLDY 63 56 78 SE12 29.92F  
MERIDIANVILLE CLOUDY 64 56 75 SE6 29.94F  
VINEMONT AP CLOUDY 63 57 82 S7 29.97F  

 
 
ALZ008>010-250800-  
NORTHEAST ALABAMA  
 
CITY SKY/WX TMP DP RH WIND PRES REMARKS
 
ALBERTVILLE PTCLDY 61 54 77 SE7 29.97F  
FORT PAYNE PTCLDY 57 54 88 CALM 29.98S  

 
 
TNZ076-096-097-250800-  
SOUTHEASTERN MIDDLE TENNESSEE  
 
CITY SKY/WX TMP DP RH WIND PRES REMARKS
 
TULLAHOMA PTCLDY 63 52 67 S13 29.93S  
WINCHESTER MOCLDY 64 54 68 SE5G13 29.95S  

 
   
..SURROUNDING SITES
 
 
 
CITY SKY/WX TMP DP RH WIND PRES REMARKS
 
ATLANTA MOCLDY 64 55 72 CALM 30.01F  
ANNISTON CLEAR 59 56 89 NE3 29.99S  
BIRMINGHAM CLEAR 64 57 78 S8 29.96F  
CHATTANOOGA CLEAR 60 54 80 S6 29.99R  
CORINTH CLOUDY 64 57 77 S12G18 29.88S  
DALTON PTCLDY 59 57 94 CALM 30.00F  
GADSDEN N/A 54 53 97 W3 29.99F  
GOLDEN TRNGL PTCLDY 61 61 100 S7 29.93F  
HALEYVILLE CLOUDY 62 58 86 S9 29.96F  
JACKSON TN CLOUDY 66 59 78 S13G21 29.83S  
MEMPHIS CLOUDY 72 66 81 SW17G26 29.82F  
NASHVILLE PTCLDY 65 50 58 S7 29.91R  
ROME CLEAR 56 53 90 NW5 29.98F  
SAVANNAH PTCLDY 64 59 82 S13 29.86F  
TUPELO CLOUDY 65 59 81 S9 29.90S  
TUSCALOOSA MOCLDY 63 61 93 CALM 29.95F  

 
 
 
 
CLICK HERE TO GO TO PREVIOUS BULLETINS.

The Nexlab AL Page
The Nexlab TN Page Main Text Page